• In Deutschland
  • Länderverzeichnis
  • Für 7 Tage
  • Wassertemperatur
  • Satellitenkarten
  • Wetterkarte
  • Widgets
  • user-avatar
    Anmelden

    Stündliche Wetter Regensburg

    Heute, 16 Juli, Montag

    Zeit Temperatur Niederschläge Wind Luftdruck Luftfeuchtigkeit
    00:00 +19°C° 1,1 mm 1 m/S 731 mmHg 85%
    01:00 +18°C° 1,1 mm 1 m/S 731 mmHg 90%
    02:00 +18°C° 0,7 mm 1 m/S 731 mmHg 91%
    03:00 +18°C° 0,7 mm 1 m/S 731 mmHg 92%
    04:00 +16°C° 0,7 mm 1 m/S 731 mmHg 92%
    05:00 +18°C° 0 mm 1 m/S 731 mmHg 91%
    06:00 +19°C° 0 mm 1 m/S 731 mmHg 89%
    07:00 +20°C° 0 mm 1 m/S 730 mmHg 88%
    08:00 +22°C° 0,3 mm 1 m/S 730 mmHg 81%
    09:00 +24°C° 0,3 mm 1 m/S 730 mmHg 74%
    10:00 +25°C° 0,3 mm 1 m/S 730 mmHg 67%
    11:00 +27°C° 0,5 mm 1 m/S 730 mmHg 61%
    12:00 +26°C° 0,5 mm 0 m/S 730 mmHg 56%
    13:00 +27°C° 0,5 mm 0 m/S 730 mmHg 50%
    14:00 +27°C° 0,1 mm 0 m/S 729 mmHg 49%
    15:00 +27°C° 0,1 mm 0 m/S 729 mmHg 48%
    16:00 +27°C° 0,1 mm 0 m/S 729 mmHg 48%
    17:00 +27°C° 0,1 mm 1 m/S 729 mmHg 54%
    18:00 +26°C° 0,1 mm 1 m/S 728 mmHg 61%
    19:00 +25°C° 0,1 mm 1 m/S 728 mmHg 67%
    20:00 +23°C° 0,1 mm 1 m/S 728 mmHg 72%
    21:00 +21°C° 0,1 mm 1 m/S 729 mmHg 77%
    22:00 +19°C° 0,1 mm 1 m/S 729 mmHg 82%
    23:00 +19°C° 0,1 mm 1 m/S 729 mmHg 85%

    Morgen, 17 Juli, Dienstag

    Zeit Temperatur Niederschläge Wind Luftdruck Luftfeuchtigkeit
    00:00 +18°C° 0,1 mm 1 m/S 729 mmHg 87%
    01:00 +18°C° 0,1 mm 1 m/S 729 mmHg 89%
    02:00 +16°C° 0 mm 1 m/S 729 mmHg 90%
    03:00 +16°C° 0 mm 1 m/S 729 mmHg 91%
    04:00 +16°C° 0 mm 1 m/S 730 mmHg 92%
    05:00 +18°C° 0 mm 1 m/S 730 mmHg 90%
    06:00 +18°C° 0 mm 2 m/S 730 mmHg 88%
    07:00 +19°C° 0 mm 2 m/S 730 mmHg 85%
    08:00 +20°C° 0 mm 2 m/S 730 mmHg 76%
    09:00 +22°C° 0 mm 3 m/S 730 mmHg 67%
    10:00 +25°C° 0 mm 3 m/S 731 mmHg 58%
    11:00 +26°C° 0 mm 3 m/S 730 mmHg 53%
    12:00 +27°C° 0 mm 4 m/S 730 mmHg 49%
    13:00 +28°C° 0 mm 4 m/S 730 mmHg 45%
    14:00 +27°C° 0,1 mm 4 m/S 730 mmHg 47%
    15:00 +27°C° 0,1 mm 4 m/S 730 mmHg 48%
    16:00 +27°C° 0,1 mm 4 m/S 730 mmHg 50%
    17:00 +26°C° 0,2 mm 4 m/S 730 mmHg 58%
    18:00 +24°C° 0,2 mm 3 m/S 730 mmHg 66%
    19:00 +22°C° 0,2 mm 3 m/S 731 mmHg 73%
    20:00 +21°C° 0,2 mm 3 m/S 731 mmHg 78%
    21:00 +19°C° 0,2 mm 3 m/S 731 mmHg 83%
    22:00 +18°C° 0,2 mm 3 m/S 731 mmHg 87%
    23:00 +18°C° 0,1 mm 2 m/S 731 mmHg 89%

    übermorgen, 18 Juli, Mittwoch

    Zeit Temperatur Niederschläge Wind Luftdruck Luftfeuchtigkeit
    00:00 +17°C° 0,1 mm 2 m/S 731 mmHg 91%
    01:00 +17°C° 0,1 mm 2 m/S 731 mmHg 92%
    02:00 +16°C° 0,1 mm 2 m/S 731 mmHg 93%
    03:00 +16°C° 0,1 mm 2 m/S 731 mmHg 94%
    04:00 +16°C° 0,1 mm 2 m/S 731 mmHg 95%
    05:00 +17°C° 0 mm 2 m/S 732 mmHg 92%
    06:00 +18°C° 0 mm 2 m/S 732 mmHg 90%
    07:00 +19°C° 0 mm 2 m/S 732 mmHg 87%
    08:00 +20°C° 0,3 mm 3 m/S 732 mmHg 81%
    09:00 +22°C° 0,3 mm 3 m/S 732 mmHg 76%
    10:00 +24°C° 0,3 mm 3 m/S 732 mmHg 71%
    11:00 +25°C° 0,4 mm 3 m/S 732 mmHg 67%
    12:00 +26°C° 0,4 mm 3 m/S 732 mmHg 63%
    13:00 +27°C° 0,4 mm 3 m/S 732 mmHg 59%
    14:00 +27°C° 0,2 mm 3 m/S 732 mmHg 59%
    15:00 +27°C° 0,2 mm 3 m/S 732 mmHg 59%
    16:00 +27°C° 0,2 mm 3 m/S 732 mmHg 59%
    17:00 +26°C° 0,2 mm 2 m/S 732 mmHg 65%
    18:00 +25°C° 0,2 mm 2 m/S 732 mmHg 71%
    19:00 +24°C° 0,2 mm 2 m/S 732 mmHg 78%
    20:00 +22°C° 0 mm 1 m/S 732 mmHg 81%
    21:00 +21°C° 0 mm 1 m/S 732 mmHg 84%
    22:00 +20°C° 0 mm 1 m/S 733 mmHg 88%
    23:00 +19°C° 0 mm 1 m/S 733 mmHg 89%

    19 Juli, Donnerstag

    Zeit Temperatur Niederschläge Wind Luftdruck Luftfeuchtigkeit
    00:00 +19°C° 0 mm 1 m/S 733 mmHg 91%
    01:00 +18°C° 0 mm 1 m/S 733 mmHg 92%
    02:00 +18°C° 0 mm 1 m/S 733 mmHg 92%
    03:00 +16°C° 0 mm 1 m/S 733 mmHg 93%
    04:00 +16°C° 0 mm 1 m/S 733 mmHg 93%
    05:00 +18°C° 0 mm 1 m/S 733 mmHg 88%
    06:00 +19°C° 0 mm 1 m/S 733 mmHg 84%
    07:00 +20°C° 0 mm 1 m/S 733 mmHg 80%
    08:00 +22°C° 0 mm 1 m/S 733 mmHg 71%
    09:00 +24°C° 0 mm 1 m/S 733 mmHg 63%
    10:00 +26°C° 0 mm 1 m/S 733 mmHg 54%
    11:00 +27°C° 0 mm 1 m/S 733 mmHg 50%
    12:00 +28°C° 0 mm 1 m/S 733 mmHg 46%
    13:00 +29°C° 0 mm 1 m/S 733 mmHg 41%
    14:00 +29°C° 0 mm 1 m/S 732 mmHg 41%
    15:00 +29°C° 0 mm 1 m/S 732 mmHg 40%
    16:00 +29°C° 0 mm 1 m/S 732 mmHg 39%
    17:00 +28°C° 0 mm 1 m/S 732 mmHg 46%
    18:00 +26°C° 0 mm 1 m/S 732 mmHg 52%
    19:00 +25°C° 0 mm 1 m/S 732 mmHg 59%
    20:00 +23°C° 0 mm 1 m/S 732 mmHg 63%
    21:00 +21°C° 0 mm 1 m/S 732 mmHg 67%
    22:00 +19°C° 0 mm 1 m/S 732 mmHg 71%
    23:00 +19°C° 0 mm 1 m/S 731 mmHg 74%

    20 Juli, Freitag

    Zeit Temperatur Niederschläge Wind Luftdruck Luftfeuchtigkeit
    00:00 +18°C° 0 mm 1 m/S 731 mmHg 78%
    01:00 +18°C° 0 mm 1 m/S 731 mmHg 82%
    02:00 +16°C° 0 mm 1 m/S 731 mmHg 84%
    03:00 +16°C° 0 mm 1 m/S 731 mmHg 87%
    04:00 +16°C° 0 mm 1 m/S 731 mmHg 89%
    05:00 +18°C° 0 mm 1 m/S 730 mmHg 85%
    06:00 +18°C° 0 mm 2 m/S 730 mmHg 81%
    07:00 +19°C° 0 mm 2 m/S 730 mmHg 78%
    08:00 +21°C° 0 mm 2 m/S 730 mmHg 70%
    09:00 +24°C° 0 mm 2 m/S 730 mmHg 63%
    10:00 +26°C° 0 mm 2 m/S 730 mmHg 56%
    11:00 +27°C° 0 mm 2 m/S 730 mmHg 52%
    12:00 +28°C° 0 mm 2 m/S 730 mmHg 49%
    13:00 +29°C° 0 mm 2 m/S 729 mmHg 45%
    14:00 +29°C° 0 mm 2 m/S 729 mmHg 46%
    15:00 +29°C° 0 mm 2 m/S 729 mmHg 46%
    16:00 +29°C° 0 mm 2 m/S 729 mmHg 47%
    17:00 +27°C° 0 mm 2 m/S 729 mmHg 55%
    18:00 +26°C° 0 mm 1 m/S 729 mmHg 62%
    19:00 +25°C° 0 mm 1 m/S 729 mmHg 69%
    20:00 +23°C° 0 mm 1 m/S 729 mmHg 72%
    21:00 +22°C° 0 mm 1 m/S 729 mmHg 75%
    22:00 +21°C° 0 mm 1 m/S 729 mmHg 78%
    23:00 +21°C° 0,2 mm 1 m/S 729 mmHg 80%

    21 Juli, Samstag

    Zeit Temperatur Niederschläge Wind Luftdruck Luftfeuchtigkeit
    00:00 +20°C° 0,2 mm 1 m/S 729 mmHg 83%
    01:00 +20°C° 0,2 mm 1 m/S 729 mmHg 85%
    02:00 +20°C° 0,2 mm 1 m/S 729 mmHg 86%
    03:00 +19°C° 0,2 mm 1 m/S 728 mmHg 86%
    04:00 +19°C° 0,2 mm 1 m/S 728 mmHg 87%
    05:00 +19°C° 0,5 mm 1 m/S 728 mmHg 87%
    06:00 +20°C° 0,5 mm 1 m/S 729 mmHg 87%
    07:00 +20°C° 0,5 mm 1 m/S 729 mmHg 88%
    08:00 +21°C° 0,4 mm 1 m/S 729 mmHg 86%
    09:00 +21°C° 0,4 mm 1 m/S 729 mmHg 84%
    10:00 +22°C° 0,4 mm 1 m/S 729 mmHg 81%
    11:00 +23°C° 0,3 mm 1 m/S 729 mmHg 78%
    12:00 +24°C° 0,3 mm 2 m/S 729 mmHg 74%
    13:00 +25°C° 0,3 mm 2 m/S 729 mmHg 71%
    14:00 +26°C° 0 mm 2 m/S 729 mmHg 68%
    15:00 +26°C° 0 mm 1 m/S 729 mmHg 64%
    16:00 +27°C° 0 mm 1 m/S 729 mmHg 61%
    17:00 +26°C° 0,2 mm 1 m/S 729 mmHg 67%
    18:00 +25°C° 0,2 mm 1 m/S 729 mmHg 72%
    19:00 +24°C° 0,2 mm 1 m/S 729 mmHg 78%
    20:00 +23°C° 0,4 mm 1 m/S 729 mmHg 82%
    21:00 +21°C° 0,4 mm 1 m/S 729 mmHg 85%
    22:00 +20°C° 0,4 mm 1 m/S 730 mmHg 89%
    23:00 +19°C° 0,2 mm 1 m/S 730 mmHg 90%
    Mehr zeigen